"Pseudo-MPEC" for P10LqA1

Created 2019 Jan 15 15:18:35 UT using Find_Orb

Click here for an explanation of pseudo-MPECs

 
 Astrometry: 
     P10LqA1  C2019 01 11l#LVZ0YFDeidK_!G`Xk.[u-fJAstrometryQYgIaYL35awn-A3P_F51
     P10LqA1  C2019 01 11+]._Xo%(F^oIE(P2q7/?x*SODEd__:2Dwt]Vjb8jF.nFjDXb5B'3F51
     P10LqA1  C2019 01 11/sAu=JNnbg^bredacted;O,.?*g[?/=S5Qo`ePI8qEUjo/cK_!4hF51
     P10LqA1  C2019 01 112r`?blhH1?qJjpYZ?CS\nl^([KCl4@Xa[QI'@K89v)GPfsKIg=apF51
     P10LqA1  C2019 01 12.16445 06 16 37.55 +61 41 31.5    ~1C4I 22.4 GVNEOCPI52
     P10LqA1  C2019 01 12.16569 06 16 37.26 +61 41 28.5    ~1C4I 21.3 GVNEOCPI52
     P10LqA1  C2019 01 12.16694 06 16 36.87 +61 41 26.5    ~1C4I 21.6 GVNEOCPI52
     P10LqA1 1C2019 01 13Jf$+='27R$P)u4PKRpxW?eNZ5[ud0)(4o,sf4+$@dTI_BydNpb+i658
     P10LqA1 1C2019 01 135Y(=nwJgd^MB$7v(Ps[nG+0SukclickgS\RR;[Ic2sQP1$rjoILy658
     P10LqA1 1C2019 01 13vh=A?SsKI.t2unc%YAx#j!OCw]j@v!qXh_wB2HkuB#pjAu$M'a(1658
     P10LqA1 1C2019 01 13*Kbbhere9!95gab^^X(Y.,O546yuQm$+kb0-KJ.9OZ@8XJFk2S@H658
     P10LqA1 1C2019 01 13g0#XL3eQ7MpQPKnn]?nNQ!nyv%sek]OHo54S'a#XS]2!t+pH]Kp6658
     P10LqA1 1C2019 01 14kWqml,sG$+?WB,37]N.i?V?)u48Q%ILobMid+N)bKiOA[2:cu)(Q658
     P10LqA1 1C2019 01 14Z4BPvos`!D=LgFHHYb2TEn_G4f7EQSePVEOPqWh=%6PA^fqforDg658
     P10LqA1 1C2019 01 140'bfCaoyaT21BP62ZWi?w`cdE'hOB:#bZJ*Te*.x;*(+p_[myxWx658
     P10LqA1 1C2019 01 14Y4@,h`jP8_4tD^6`DrSCpdvPd$RrFehy/cAI-Kam_57DKRBC_?n$658
     P10LqA1 1C2019 01 14?o(vok_j:lU9Uj+S]u9voa0+B*56#_?yT0explanation8x%_:4x658
     P10LqA1  C2019 01 15.20014 06 04 33.88 +59 48 50.5    ~1F5I 21.1 GVNEOCPI52
     P10LqA1  C2019 01 15.20263 06 04 33.32 +59 48 45.5    ~1F5I 22.0 GVNEOCPI52
     P10LqA1  C2019 01 15.20512 06 04 32.81 +59 48 39.6    ~1F5I 20.9 GVNEOCPI52

Station data:
(658) Dominion Astrophysical Observatory  (N48.519987 W123.417000)
   Canada/BritColumbia. 1.82-m Plaskett reflector.
(F51) Pan-STARRS 1, Haleakala  (N20.707235 W156.255910)  US/Hawaii.
   Observers N. Primak, A. Schultz, S. Watters, J. Thiel, T. Goggia. Measurer
   PS1 Science Consortium. 1.8-m Ritchey-Chrétien + CCD.
(I52) Steward Observatory, Mt. Lemmon Station  (N32.442547 W110.788920)
   US/Arizona.  Observers B. M. Africano, E. J. Christensen, G. A. Farneth,
   D. C. Fuls, A. R. Gibbs, A. D. Grauer, H. Groeller, J. A. Johnson, R. A.
   Kowalski, S. M. Larson, G. J. Leonard, R. L. Seaman, F. C. Shelly. 1.0-m
   reflector + CCD.

Orbital elements:  P10LqA1
   Perihelion 2018 Oct 20.641233 +/- 0.128 TT = 15:23:22 (JD 2458412.141233)
Epoch 2019 Jan 15.0 TT = JDT 2458498.5   Earth MOID: 0.3144   Ju: 0.5870
M  21.29608817 +/- 0.6              (J2000 ecliptic)          AutoNEOCP
n   0.24660018 +/- 0.00755          Peri.  352.01322 +/- 0.44
a   2.51849125 +/- 0.0514           Node   325.58110 +/- 0.56
e   0.9020544 +/- 0.00281           Incl.   25.62925 +/- 0.30
P   4.00                   H 19.8   G  0.15   U  9.5  
q 0.24667490 +/- 0.00198    Q 4.79030759 +/- 0.101
From 20 observations 2019 Jan. 11-15; mean residual 0".19
Residuals in arcseconds: 
190111 F51  .07+  .11+    190113 658  .27-  .02+    190114 658  .07+  .31+    
190111 F51  .15-  .05-    190113 658  .02+  .06+    190114 658  .29+  .31+    
190111 F51  .13-  .01+    190113 658  .09-  .11-    190114 658  .21+  .30-    
190111 F51  .02-  .11+    190113 658  .00   .21-    190115 I52  .06+  .19-    
190112 I52  .03-  .16-    190113 658  .11-  .21-    190115 I52  .13-  .24+    
190112 I52  .36+  .40-    190114 658  .27-  .15+    190115 I52  .06+  .23-    
190112 I52  .05+  .39+    190114 658  .16-  .30+    

Ephemerides (geocentric):
Date (UTC) HH   RA              Dec         delta   r     elong  mag " sig PA
---- -- -- --  -------------   -----------  ------ ------ -----  --- ---- ---
2019 01 15 15  06 03 06.809   +59 33 17.16  .88641 1.7424 137.4 21.8 .255 133
2019 01 15 16  06 02 58.474   +59 31 46.30  .88708 1.7429 137.3 21.8 .269 132
2019 01 15 17  06 02 50.170   +59 30 15.50  .88775 1.7435 137.3 21.8 .282 132
2019 01 15 18  06 02 41.896   +59 28 44.75  .88842 1.7440 137.3 21.8 .296 132
2019 01 15 19  06 02 33.653   +59 27 14.04  .88909 1.7446 137.3 21.8 .310 132
2019 01 15 20  06 02 25.439   +59 25 43.39  .88977 1.7451 137.3 21.8 .325 132
2019 01 15 21  06 02 17.256   +59 24 12.79  .89044 1.7457 137.3 21.8 .339 131
2019 01 15 22  06 02 09.104   +59 22 42.24  .89111 1.7462 137.3 21.8 .354 131
2019 01 15 23  06 02 00.981   +59 21 11.75  .89179 1.7468 137.3 21.8 .369 131
2019 01 16 00  06 01 52.887   +59 19 41.30  .89246 1.7473 137.2 21.8 .384 131
2019 01 16 01  06 01 44.824   +59 18 10.91  .89313 1.7479 137.2 21.8 .400 131
2019 01 16 02  06 01 36.790   +59 16 40.57  .89381 1.7484 137.2 21.8 .415 131
2019 01 16 03  06 01 28.786   +59 15 10.28  .89449 1.7490 137.2 21.8 .431 130
2019 01 16 04  06 01 20.812   +59 13 40.04  .89516 1.7495 137.2 21.8 .447 130
2019 01 16 05  06 01 12.866   +59 12 09.86  .89584 1.7501 137.2 21.8 .464 130
2019 01 16 06  06 01 04.950   +59 10 39.73  .89652 1.7506 137.2 21.8 .480 130
2019 01 16 07  06 00 57.063   +59 09 09.65  .89719 1.7512 137.2 21.8 .497 130
2019 01 16 08  06 00 49.205   +59 07 39.63  .89787 1.7517 137.1 21.8 .514 130
2019 01 16 09  06 00 41.376   +59 06 09.66  .89855 1.7523 137.1 21.8 .531 130
2019 01 16 10  06 00 33.576   +59 04 39.75  .89923 1.7528 137.1 21.8 .549 130
2019 01 16 11  06 00 25.805   +59 03 09.89  .89991 1.7534 137.1 21.8 .566 129
2019 01 16 12  06 00 18.062   +59 01 40.08  .90059 1.7539 137.1 21.8 .584 129
2019 01 16 13  06 00 10.348   +59 00 10.33  .90127 1.7545 137.1 21.8 .602 129
2019 01 16 14  06 00 02.663   +58 58 40.63  .90195 1.7550 137.1 21.8 .621 129
2019 01 16 15  05 59 55.006   +58 57 10.99  .90263 1.7556 137.0 21.8 .639 129
2019 01 16 16  05 59 47.377   +58 55 41.41  .90332 1.7562 137.0 21.8 .658 129
2019 01 16 17  05 59 39.776   +58 54 11.88  .90400 1.7567 137.0 21.9 .677 129
2019 01 16 18  05 59 32.203   +58 52 42.40  .90468 1.7573 137.0 21.9 .696 129
2019 01 16 19  05 59 24.659   +58 51 12.99  .90536 1.7578 137.0 21.9 .716 129
2019 01 16 20  05 59 17.142   +58 49 43.62  .90605 1.7584 137.0 21.9 .735 129
2019 01 16 21  05 59 09.653   +58 48 14.32  .90673 1.7589 137.0 21.9 .755 128
2019 01 16 22  05 59 02.192   +58 46 45.07  .90742 1.7595 137.0 21.9 .775 128
2019 01 16 23  05 58 54.758   +58 45 15.88  .90810 1.7600 136.9 21.9 .795 128
2019 01 17 00  05 58 47.352   +58 43 46.74  .90879 1.7605 136.9 21.9 .816 128
2019 01 17 01  05 58 39.974   +58 42 17.66  .90948 1.7611 136.9 21.9 .837 128
2019 01 17 02  05 58 32.623   +58 40 48.64  .91016 1.7616 136.9 21.9 .858 128
2019 01 17 03  05 58 25.299   +58 39 19.68  .91085 1.7622 136.9 21.9 .879 128
2019 01 17 04  05 58 18.002   +58 37 50.77  .91154 1.7627 136.9 21.9 .900 128
2019 01 17 05  05 58 10.732   +58 36 21.92  .91223 1.7633 136.9 21.9 .922 128
2019 01 17 06  05 58 03.489   +58 34 53.13  .91291 1.7638 136.8 21.9 .944 128
2019 01 17 07  05 57 56.273   +58 33 24.40  .91360 1.7644 136.8 21.9 .966 128
2019 01 17 08  05 57 49.084   +58 31 55.73  .91429 1.7649 136.8 21.9 .988 128
2019 01 17 09  05 57 41.922   +58 30 27.12  .91498 1.7655 136.8 21.9 1.01 127
2019 01 17 10  05 57 34.786   +58 28 58.56  .91567 1.7660 136.8 21.9 1.03 127
2019 01 17 11  05 57 27.677   +58 27 30.06  .91636 1.7666 136.8 21.9 1.06 127
2019 01 17 12  05 57 20.594   +58 26 01.63  .91706 1.7671 136.7 21.9 1.08 127
2019 01 17 13  05 57 13.538   +58 24 33.25  .91775 1.7677 136.7 21.9 1.10 127
2019 01 17 14  05 57 06.508   +58 23 04.93  .91844 1.7682 136.7 21.9 1.13 127